Regional Weather Roundup
Issued by NWS

Home | Current Version | Previous Version | Graphics & Text | Print | Product List | Glossary On
Versions: 1 2 3 4 5 6 7 8 9 10 11 12 13 14 15 16 17 18 19 20 21 22 23 24 25 26 27 28 29 30 31 32 33 34 35 36 37 38 39 40 41 42 43 44 45 46 47 48 49 50
000
ASUS43 KFSD 081610
RWRSD

WEATHER ROUNDUP FOR SOUTH DAKOTA
NATIONAL WEATHER SERVICE SIOUX FALLS SD
1000 AM CST THU DEC 08 2016

NOTE: "FAIR" INDICATES FEW OR NO CLOUDS BELOW 12,000 FEET WITH NO
SIGNIFICANT WEATHER AND/OR OBSTRUCTIONS TO VISIBILITY.


SDZ001>005-009-010-012>017-081700-
NORTHWEST AND NORTH CENTRAL SOUTH DAKOTA

CITY           SKY/WX    TMP DP  RH WIND       PRES   REMARKS
BUFFALO          N/A     -3  -9  75 W12       30.48S WCI -21
FAITH            N/A     -2  -7  79 NW14      30.61R WCI -21
MOBRIDGE       CLOUDY     3  -5  69 NW21      30.60R WCI -18
$$

SDZ012>016-024>037-041>051-057-063-072>074-081700-
SOUTHWEST AND SOUTH CENTRAL SOUTH DAKOTA

CITY           SKY/WX    TMP DP  RH WIND       PRES   REMARKS
RAPID CTY ARPT SUNNY      2  -5  72 SE3       30.58R
PIERRE         PTSUNNY    5  -1  76 NW21      30.66R WCI -16
CUSTER         SUNNY      5 -10  50 CALM      30.33R
ELLSWORTH AFB  SUNNY      2  -7  66 CALM      30.57R
PHILIP         SUNNY      4  -6  63 W12       30.68R WCI -12
PINE RIDGE     SUNNY     -9 -13  83 CALM      30.59R
SPEARFISH      FAIR       0 -11  60 W6        30.51R WCI -12
WINNER         FAIR       9  -2  61 NW22      30.64R WCI -11
$$

SDZ004>011-016>023-039-040-081700-
NORTHEAST SOUTH DAKOTA

CITY           SKY/WX    TMP DP  RH WIND       PRES   REMARKS
ABERDEEN       CLOUDY    10   2  69 NW17      30.60R WCI  -8
WATERTOWN      CLOUDY     9   3  77 NW21      30.49R WCI -11
BROOKINGS      SUNNY      9   4  80 NW24      30.50R WCI -12
SISSETON         N/A     13   5  70 NW24G33   30.51R WCI  -7
$$

SDZ017-020-022-023-036>040-048>070-081700-
SOUTHEAST SOUTH DAKOTA

CITY           SKY/WX    TMP DP  RH WIND       PRES   REMARKS
SIOUX FALLS    MOSUNNY   11   5  77 NW22G29   30.55R WCI  -8
HURON          MOSUNNY   10   2  69 NW17      30.63R WCI  -8
CHAMBERLAIN    CLOUDY     9   2  73 NW20G26   30.65R WCI -10
MITCHELL       SUNNY     11   2  67 NW21G31   30.65R WCI  -8
YANKTON        SUNNY    N/A N/A N/A NW26G35   30.61R
$$

ABBREVIATIONS USED IN REMARKS
   TC - TEMPERATURE IN CELSIUS
  WCI - WIND CHILL INDEX
   HX - HEAT INDEX
  VSB - VISIBILITY





USA.gov is the U.S. government's official web portal to all federal, state and local government web resources and services.